Date String (YYYY-MM-DD hh:mm:ss) UTC,Instrument flags,Ambient pressure (hPa),Sample flow (lpm),Bypass flow (lpm),Sample temperature (°C),Ambient temperature (°C),ASC tube jacket temperature (°C),LED temperature (°C),Box temperature (°C),Sample RH (%),Span deviation,Mass concentration (μg/m³),Mass concentration (μg/m³),Mass concentration (μg/m³)
DateTimeUTC,F1_M11,P_M11,Q1_M11,Q2_M11,T1_M11,T2_M11,T3_M11,T4_M11,T5_M11,U1_M11,ZSPAN_M11,X0_M11,X2_M11,X1_M11
2022-11-08 12:00:00,,0821.9,5.00,0.00,23.5,22.1,00.0,32.3,25.4,13.8,0001.1,0010.51,0004.87,0004.29
2022-11-08 12:01:00,,0822.0,5.01,0.00,23.5,22.1,00.0,32.3,25.4,13.7,0000.6,0010.20,0004.89,0004.31
2022-11-08 12:02:00,,0821.9,4.98,0.00,23.5,22.1,00.0,32.3,25.4,13.7,0001.4,0010.81,0004.92,0004.33
2022-11-08 12:03:00,,0821.9,5.02,0.00,23.5,22.0,00.0,32.3,25.4,13.6,0001.2,0011.12,0004.98,0004.35
2022-11-08 12:04:00,,0822.0,5.00,0.00,23.5,22.0,00.0,32.3,25.4,12.3,0001.0,0011.02,0004.88,0004.28
2022-11-08 12:05:00,,0822.0,4.99,0.00,23.5,22.1,00.0,32.3,25.4,12.2,0000.9,0010.46,0004.76,0004.19
2022-11-08 12:06:00,,0821.9,5.00,0.00,23.5,22.1,00.0,32.3,25.4,12.6,0000.6,0009.93,0004.70,0004.13
2022-11-08 12:07:00,,0821.8,5.01,0.00,23.5,22.1,00.0,32.3,25.4,12.9,-000.3,0009.76,0004.61,0004.07
2022-11-08 12:08:00,,0821.9,4.98,0.00,23.5,22.1,00.0,32.3,25.4,12.9,-000.6,0009.40,0004.51,0004.02
2022-11-08 12:09:00,,0822.0,5.00,0.00,23.5,22.1,00.0,32.3,25.4,12.8,-000.2,0009.01,0004.42,0003.96
2022-11-08 12:10:00,,0822.1,5.01,0.00,23.5,22.1,00.0,32.3,25.4,12.8,-000.0,0009.01,0004.33,0003.85
2022-11-08 12:11:00,,0822.1,4.99,0.00,23.5,22.1,00.0,32.3,25.5,12.9,0000.2,0008.83,0004.23,0003.75
2022-11-08 12:12:00,,0822.1,5.00,0.00,23.5,22.1,00.0,32.3,25.5,12.9,0000.2,0008.45,0004.14,0003.67
2022-11-08 12:13:00,,0822.1,5.01,0.00,23.5,22.1,00.0,32.3,25.5,12.9,0000.2,0007.74,0004.04,0003.57
2022-11-08 12:14:00,,0822.1,4.99,0.00,23.5,22.1,00.0,32.3,25.5,12.9,0000.1,0007.94,0003.94,0003.49
2022-11-08 12:15:00,,0822.0,5.01,0.00,23.5,22.1,00.0,32.3,25.4,12.9,-000.5,0008.39,0003.99,0003.53
2022-11-08 12:16:00,,0822.0,5.00,0.00,23.5,22.1,00.0,32.3,25.4,12.9,-000.8,0009.19,0004.08,0003.58
2022-11-08 12:17:00,,0822.0,4.99,0.00,23.5,22.1,00.0,32.3,25.4,12.9,-000.9,0009.14,0004.11,0003.60
2022-11-08 12:18:00,,0821.9,5.01,0.00,23.5,22.1,00.0,32.3,25.4,12.9,-000.4,0009.21,0004.11,0003.59
2022-11-08 12:19:00,,0822.2,5.00,0.00,23.5,22.1,00.0,32.3,25.4,12.8,-000.5,0009.71,0004.10,0003.58
2022-11-08 12:20:00,,0822.1,4.99,0.00,23.5,22.1,00.0,32.3,25.4,13.0,-001.0,0009.84,0004.11,0003.60
2022-11-08 12:21:00,,0822.0,5.01,0.00,23.5,22.1,00.0,32.3,25.4,12.6,-000.8,0010.13,0004.10,0003.59
2022-11-08 12:22:00,,0822.0,5.01,0.00,23.5,22.1,00.0,32.3,25.4,12.7,-000.8,0010.13,0004.09,0003.58
2022-11-08 12:23:00,,0822.0,4.98,0.00,23.5,22.1,00.0,32.3,25.4,13.0,-000.5,0010.08,0004.10,0003.59
2022-11-08 12:24:00,,0822.0,5.01,0.00,23.5,22.1,00.0,32.3,25.4,12.9,-000.6,0010.03,0004.08,0003.61
2022-11-08 12:25:00,,0822.0,5.00,0.00,23.5,22.0,00.0,32.3,25.4,12.8,-000.4,0009.87,0004.09,0003.62
2022-11-08 12:26:00,,0822.0,5.00,0.00,23.5,22.0,00.0,32.3,25.4,12.7,-000.0,0010.60,0004.07,0003.61
2022-11-08 12:27:00,,0822.0,4.99,0.00,23.5,22.0,00.0,32.3,25.4,12.6,0000.2,0010.81,0004.06,0003.60
2022-11-08 12:28:00,,0822.1,5.01,0.00,23.5,22.0,00.0,32.3,25.4,12.6,0000.2,0010.84,0004.04,0003.59
2022-11-08 12:29:00,,0822.1,5.01,0.00,23.5,22.0,00.0,32.3,25.4,12.5,0000.1,0010.77,0004.03,0003.57
2022-11-08 12:30:00,,0822.0,4.99,0.00,23.5,22.0,00.0,32.3,25.4,12.7,0000.7,0010.23,0004.01,0003.56
2022-11-08 12:31:00,,0821.9,5.00,0.00,23.5,22.1,00.0,32.3,25.4,12.8,0001.4,0010.18,0003.99,0003.55
2022-11-08 12:32:00,,0822.0,5.01,0.00,23.5,22.0,00.0,32.3,25.3,12.7,0001.4,0010.01,0004.01,0003.56
2022-11-08 12:33:00,,0822.1,5.00,0.00,23.5,22.0,00.0,32.3,25.4,12.7,0001.6,0010.26,0004.00,0003.59
2022-11-08 12:34:00,,0821.9,5.00,0.00,23.5,22.0,00.0,32.3,25.4,12.5,0002.4,0010.25,0003.97,0003.57
2022-11-08 12:35:00,,0822.0,5.00,0.00,23.5,22.0,00.0,32.3,25.4,12.5,0003.1,0011.14,0003.97,0003.54
2022-11-08 12:36:00,,0822.0,5.00,0.00,23.5,22.0,00.0,32.3,25.4,12.6,0003.8,0010.74,0003.96,0003.52
2022-11-08 12:37:00,,0822.0,5.02,0.00,23.5,22.0,00.0,32.3,25.3,12.6,0003.8,0009.57,0003.98,0003.52
2022-11-08 12:38:00,,0821.9,4.98,0.00,23.5,22.0,00.0,32.3,25.4,12.4,0003.9,0008.55,0003.92,0003.52
2022-11-08 12:39:00,,0821.9,5.01,0.00,23.5,22.0,00.0,32.3,25.4,12.4,0004.1,0008.41,0003.88,0003.51
2022-11-08 12:40:00,,0821.8,5.01,0.00,23.5,22.0,00.0,32.3,25.4,12.5,0003.9,0008.34,0003.86,0003.51
2022-11-08 12:41:00,,0822.2,5.00,0.00,23.5,22.0,00.0,32.3,25.3,12.5,0003.7,0008.29,0003.83,0003.50
2022-11-08 12:42:00,,0822.1,5.00,0.00,23.5,22.0,00.0,32.3,25.3,12.6,0003.3,0008.11,0003.78,0003.48
2022-11-08 12:43:00,,0821.8,4.99,0.00,23.5,21.9,00.0,32.3,25.3,12.5,0003.5,0007.87,0003.76,0003.47
2022-11-08 12:44:00,,0821.8,5.00,0.00,23.5,21.9,00.0,32.3,25.2,12.1,0003.5,0007.63,0003.74,0003.43
2022-11-08 12:45:00,,0821.8,5.01,0.00,23.4,21.9,00.0,32.3,25.2,12.3,0003.2,0007.63,0003.72,0003.43
2022-11-08 12:46:00,,0821.8,5.00,0.00,23.4,21.8,00.0,32.3,25.2,11.5,0003.1,0006.12,0003.66,0003.37
2022-11-08 12:47:00,,0821.8,5.00,0.00,23.4,21.8,00.0,32.3,25.2,11.4,0002.9,0006.07,0003.56,0003.29
2022-11-08 12:48:00,,0821.8,5.00,0.00,23.4,21.8,00.0,32.3,25.2,11.6,0003.1,0006.05,0003.47,0003.21
2022-11-08 12:49:00,,0821.8,5.01,0.00,23.4,21.8,00.0,32.3,25.2,12.7,0002.9,0006.23,0003.48,0003.18
2022-11-08 12:50:00,,0821.8,5.00,0.00,23.4,21.8,00.0,32.3,25.2,12.9,0000.2,0006.70,0003.49,0003.16
2022-11-08 12:51:00,,0821.9,4.99,0.00,23.4,21.8,00.0,32.2,25.2,12.7,0002.7,0007.39,0003.46,0003.13
2022-11-08 12:52:00,,0821.8,5.01,0.00,23.4,21.9,00.0,32.2,25.2,13.1,0004.1,0007.55,0003.44,0003.11
2022-11-08 12:53:00,,0821.8,5.00,0.00,23.4,21.9,00.0,32.2,25.2,12.9,0003.6,0007.61,0003.46,0003.11
2022-11-08 12:54:00,,0821.9,4.99,0.00,23.4,21.9,00.0,32.2,25.2,13.0,0001.9,0007.73,0003.42,0003.06
2022-11-08 12:55:00,,0821.8,5.01,0.00,23.4,21.9,00.0,32.2,25.2,12.8,0003.0,0008.14,0003.41,0003.05
2022-11-08 12:56:00,,0821.8,5.00,0.00,23.4,21.9,00.0,32.2,25.2,12.7,0003.2,0008.11,0003.40,0003.03
2022-11-08 12:57:00,,0821.8,5.00,0.00,23.4,21.9,00.0,32.2,25.3,12.8,0003.0,0008.16,0003.42,0003.07
2022-11-08 12:58:00,,0821.8,5.01,0.00,23.4,21.9,00.0,32.2,25.2,13.0,0003.3,0008.16,0003.50,0003.17
2022-11-08 12:59:00,,0821.8,4.98,0.00,23.4,21.9,00.0,32.2,25.2,13.2,0003.5,0008.17,0003.57,0003.24
